Location: Berg
(48.4333°N, 13.9167°E)
Time: 22:03:40
(UTC+00:00)

Cosmos 1437 - Pass Details

Date: 18 September 2020
Orbit: 365 x 368 km, 81.2° (Epoch: 30 October)

Event Time Altitude Azimuth Distance (km) Brightness Sun altitude
Rises 18:11:05 0° 344° (NNW) 2,256 6.9 -10.8°
Reaches altitude 10° 18:13:06 10° 339° (NNW) 1,399 5.9 -11.2°
Maximum altitude 18:16:03 51° 262° (W) 488 3.5 -11.6°
Drops below altitude 10° 18:18:59 10° 185° (S) 1,386 5.3 -12.1°
Sets 18:20:59 0° 180° (S) 2,231 6.3 -12.4°
